time_stamp(utc),avg(mph),gust(mph),direction(deg),12m_air_temp(f),sonic_u(cm/s),sonic_v(cm/s),sonic_w(cm/s),pressure,2m_air_temp(f),pyranometer(W/m^2)
"2019-11-02 00:02:54+00",13.7,15.7,,48.2,-473,374,37,1022.8,47.3,0
"2019-11-02 00:07:54+00",13.3,16.3,,48.1,-525,310,47,1022.84,47.2,0
"2019-11-02 00:12:54+00",14.7,17.7,,48,-532,380,38,1022.91,47.1,0
"2019-11-02 00:17:54+00",13.8,15.8,,47.9,-473,373,63,1022.82,47,0
"2019-11-02 00:22:54+00",18.1,20.1,,47.8,-621,505,28,1022.91,46.9,0
"2019-11-02 00:27:54+00",14.8,16.8,,47.8,-532,407,34,1022.95,46.8,0
"2019-11-02 00:32:54+00",14.5,17.5,,47.6,-497,417,47,1022.92,46.8,0
"2019-11-02 00:37:54+00",15.5,17.5,,47.6,-604,383,46,1022.97,46.7,0
"2019-11-02 00:42:54+00",13.0,16.0,,47.5,-445,386,38,1023.03,46.7,0
"2019-11-02 00:47:54+00",14.6,16.6,,47.4,-499,413,37,1023.08,46.6,0
"2019-11-02 00:52:54+00",13.0,15.0,,47.5,-424,396,40,1023.08,46.5,0
"2019-11-02 00:57:54+00",16.2,18.2,,47.4,-523,509,44,1023.08,46.4,0
"2019-11-02 01:02:54+00",14.9,15.9,,47.3,-506,448,41,1023.06,46.4,0
"2019-11-02 01:07:54+00",15.1,18.1,,47.2,-527,421,29,1023.09,46.3,0
"2019-11-02 01:12:54+00",11.8,15.8,,47,-449,315,40,1023.1,46.3,0
"2019-11-02 01:17:54+00",16.3,19.3,,46.8,-633,401,49,1023.12,46.1,0
"2019-11-02 01:22:54+00",14.9,16.9,,46.7,-526,407,53,1023.07,46,0
"2019-11-02 01:27:54+00",14.9,16.9,,46.5,-489,451,59,1023.15,45.9,0
"2019-11-02 01:32:54+00",12.2,15.2,,46.4,-460,345,73,1023.2,45.8,0
"2019-11-02 01:37:54+00",13.2,17.2,,46.2,-471,364,65,1023.2,45.6,0
"2019-11-02 01:42:54+00",15.6,18.6,,46,-545,469,46,1023.21,45.5,0
"2019-11-02 01:47:54+00",16.3,17.3,,45.7,-511,511,44,1023.22,45.3,0
"2019-11-02 01:52:54+00",15.9,17.9,,45.4,-512,489,38,1023.18,45.1,0
"2019-11-02 01:57:54+00",13.9,15.9,,45.1,-458,421,40,1023.28,44.8,0
"2019-11-02 02:02:54+00",14.7,16.7,,45,-482,446,42,1023.24,44.6,0
"2019-11-02 02:07:54+00",15.5,18.5,,44.8,-495,490,46,1023.24,44.5,0
"2019-11-02 02:12:54+00",14.5,17.5,,44.8,-488,430,49,1023.21,44.4,0
"2019-11-02 02:17:54+00",14.5,17.5,,44.7,-466,470,60,1023.24,44.3,0
"2019-11-02 02:22:54+00",15.5,19.5,,44.6,-499,501,48,1023.19,44.2,0
"2019-11-02 02:27:54+00",15.4,16.4,,44.5,-483,495,47,1023.23,44.1,0
"2019-11-02 02:32:54+00",16.4,18.4,,44.4,-501,539,43,1023.22,44.1,0
"2019-11-02 02:37:54+00",13.7,15.7,,44.5,-463,424,66,1023.21,44.1,0
"2019-11-02 02:42:54+00",15.6,17.6,,44.3,-498,492,42,1023.14,44,0
"2019-11-02 02:47:54+00",15.8,17.8,,44.2,-492,517,37,1023.04,43.9,0
"2019-11-02 02:52:54+00",14.6,19.6,,44.1,-455,471,58,1023.02,43.8,0
"2019-11-02 02:57:54+00",14.3,17.3,,44.1,-491,435,75,1023.04,43.7,0
"2019-11-02 03:02:54+00",13.0,18.0,,43.8,-405,428,45,1023.02,43.6,0
"2019-11-02 03:07:54+00",13.3,16.3,,43.8,-461,383,44,1022.93,43.4,0
"2019-11-02 03:12:54+00",14.0,17.0,,43.7,-430,450,44,1022.98,43.3,0
"2019-11-02 03:17:54+00",12.1,14.1,,43.6,-391,376,59,1023.02,43.3,0
"2019-11-02 03:22:54+00",12.8,15.8,,43.5,-439,398,51,1023.01,43.2,0
"2019-11-02 03:27:54+00",14.2,16.2,,43.5,-442,457,32,1022.95,43.2,0
"2019-11-02 03:32:54+00",12.9,14.9,,43.4,-402,398,51,1022.92,43.1,0
"2019-11-02 03:37:54+00",14.1,18.1,,43.4,-431,453,39,1022.99,43.1,0
"2019-11-02 03:42:54+00",15.2,17.2,,43.4,-477,478,17,1022.88,43,0
"2019-11-02 03:47:54+00",12.0,14.0,,43.2,-402,362,46,1022.9,43,0
"2019-11-02 03:52:54+00",12.3,14.3,,43.1,-364,410,62,1022.87,42.9,0
"2019-11-02 03:57:54+00",12.5,13.5,,42.9,-342,447,49,1022.97,42.8,0
"2019-11-02 04:02:54+00",13.9,14.9,,43,-423,442,50,1022.94,42.7,0
"2019-11-02 04:07:54+00",17.4,20.4,,42.9,-442,521,72,1022.94,42.6,0
"2019-11-02 04:12:54+00",14.8,16.8,,43.1,-462,475,47,1022.99,42.7,0
"2019-11-02 04:17:54+00",12.2,15.2,,43,-378,410,87,1023.07,42.7,0
"2019-11-02 04:22:54+00",13.0,15.0,,42.8,-376,435,60,1023.05,42.6,0
"2019-11-02 04:27:54+00",16.3,19.3,,42.7,-475,525,68,1023.06,42.5,0
"2019-11-02 04:32:54+00",15.2,17.2,,42.6,-340,298,156,1022.92,42.3,0
"2019-11-02 04:37:54+00",15.7,16.7,,42.5,-447,482,67,1023,42.3,0
"2019-11-02 04:42:54+00",14.6,17.6,,42.4,-302,329,144,1022.98,42.2,0
"2019-11-02 04:47:54+00",14.1,16.1,,42.2,-300,378,110,1022.91,42,0
"2019-11-02 04:52:54+00",13.6,15.6,,41.9,-186,193,209,1022.92,41.7,0
"2019-11-02 04:57:54+00",14.3,16.3,,41.4,336,-612,684,1022.9,41.3,0
"2019-11-02 05:02:54+00",13.5,15.5,,41,958,-1709,1277,1022.9,40.9,0
"2019-11-02 05:07:54+00",13.0,15.0,,40.5,888,-1592,1200,1022.87,40.5,0
"2019-11-02 05:12:54+00",14.9,16.9,,40.6,1323,-2426,1671,1022.81,40.3,0
"2019-11-02 05:17:54+00",14.6,16.6,,40.3,1395,-2433,1697,1022.75,40.1,0
"2019-11-02 05:22:54+00",13.6,15.6,,40.2,1003,-1824,1348,1022.68,39.9,0
"2019-11-02 05:27:54+00",12.9,16.9,,40.2,882,-1593,1179,1022.73,39.9,0
"2019-11-02 05:32:54+00",12.8,15.8,,40.2,746,-1380,1080,1022.62,39.9,0
"2019-11-02 05:37:54+00",13.7,16.7,,40.2,915,-1720,1291,1022.67,39.8,0
"2019-11-02 05:42:54+00",12.6,13.6,,40.1,1041,-1938,1395,1022.61,39.8,0
"2019-11-02 05:47:54+00",12.7,14.7,,40.1,1009,-1838,1333,1022.59,39.8,0
"2019-11-02 05:52:54+00",14.1,17.1,,39.9,1189,-2127,1517,1022.65,39.6,0
"2019-11-02 05:57:54+00",13.8,15.8,,39.9,1459,-2633,1785,1022.62,39.5,0
"2019-11-02 06:02:54+00",12.7,15.7,,39.8,1074,-1894,1367,1022.67,39.5,0
"2019-11-02 06:07:54+00",13.8,15.8,,39.8,1019,-1786,1338,1022.65,39.4,0
"2019-11-02 06:12:54+00",12.0,15.0,,39.6,508,-883,790,1022.7,39.3,0
"2019-11-02 06:17:54+00",12.2,15.2,,39.5,403,-742,713,1022.72,39.2,0
"2019-11-02 06:22:54+00",10.4,12.4,,39.3,-67,141,192,1022.72,39,0
"2019-11-02 06:27:54+00",9.9,10.9,,39.1,-13,23,232,1022.75,38.8,0
"2019-11-02 06:32:54+00",9.1,12.1,,38.9,-85,116,176,1022.8,38.7,0
"2019-11-02 06:37:54+00",10.4,11.4,,38.9,-23,36,241,1022.78,38.5,0
"2019-11-02 06:42:54+00",9.6,11.6,,38.8,-143,245,111,1022.9,38.4,0
"2019-11-02 06:47:54+00",10.3,11.3,,38.6,4,-20,261,1022.8,38.3,0
"2019-11-02 06:52:54+00",9.9,10.9,,38.5,-63,119,182,1022.81,38.2,0
"2019-11-02 06:57:54+00",10.9,12.9,,38.4,-12,52,246,1022.77,38.1,0
"2019-11-02 07:02:54+00",10.5,13.5,,38.2,-44,68,229,1022.77,37.9,0
"2019-11-02 07:07:54+00",10.6,12.6,,38.2,-73,179,164,1022.8,37.8,0
"2019-11-02 07:12:54+00",8.8,9.8,,38.1,-125,251,80,1022.85,37.7,0
"2019-11-02 07:17:54+00",7.1,8.1,,37.9,-112,221,49,1022.8,37.6,0
"2019-11-02 07:22:54+00",8.2,9.2,,38,-101,227,74,1022.85,37.5,0
"2019-11-02 07:27:54+00",9.1,11.1,,37.9,-92,217,120,1022.84,37.4,0
"2019-11-02 07:32:54+00",9.8,10.8,,37.9,-110,303,77,1022.74,37.3,0
"2019-11-02 07:37:54+00",8.3,10.3,,37.8,-53,216,95,1022.87,37.3,0
"2019-11-02 07:42:54+00",8.3,9.3,,37.8,-76,165,122,1022.84,37.2,0
"2019-11-02 07:47:54+00",10.1,12.1,,37.7,-54,137,182,1022.91,37.2,0
"2019-11-02 07:52:54+00",8.4,10.4,,37.7,-61,152,136,1022.85,37.1,0
"2019-11-02 07:57:54+00",8.8,9.8,,37.5,-44,115,153,1022.9,37.1,0
"2019-11-02 08:02:54+00",10.9,11.9,,37.5,-88,270,114,1022.84,37,0
"2019-11-02 08:07:54+00",10.3,11.3,,37.3,-77,218,140,1022.77,36.9,0
"2019-11-02 08:12:54+00",8.6,9.6,,37,-84,198,104,1022.76,36.7,0
"2019-11-02 08:17:54+00",9.2,11.2,,36.9,-32,156,153,1022.78,36.6,0
"2019-11-02 08:22:54+00",8.5,10.5,,36.9,-77,245,76,1022.73,36.4,0
"2019-11-02 08:27:54+00",8.6,9.6,,36.8,-74,285,58,1022.64,36.3,0
"2019-11-02 08:32:54+00",7.5,8.5,,36.8,-51,207,90,1022.62,36.3,0
"2019-11-02 08:37:54+00",8.4,9.4,,36.9,-78,283,57,1022.58,36.2,0
"2019-11-02 08:42:54+00",8.0,10.0,,37.1,-73,252,84,1022.6,36.1,0
"2019-11-02 08:47:54+00",7.4,8.4,,37.2,-58,222,73,1022.57,36.2,0
"2019-11-02 08:52:54+00",7.7,8.7,,37.4,-7,211,82,1022.58,36.2,0
"2019-11-02 08:57:54+00",7.2,8.2,,37.5,-58,238,59,1022.51,36.3,0
"2019-11-02 09:02:54+00",7.5,8.5,,37.4,-23,231,74,1022.49,36.3,0
"2019-11-02 09:07:54+00",6.9,8.9,,37.5,-26,264,34,1022.45,36.2,0
"2019-11-02 09:12:54+00",9.3,10.3,,37.9,-3,354,40,1022.51,36.1,0
"2019-11-02 09:17:54+00",9.0,10.0,,38.2,39,273,79,1022.56,36.1,0
"2019-11-02 09:22:54+00",9.1,10.1,,38.3,23,276,91,1022.48,36.2,0
"2019-11-02 09:27:54+00",9.7,10.7,,38.2,-29,405,5,1022.53,36.3,0
"2019-11-02 09:32:54+00",9.8,11.8,,38.1,80,201,134,1022.54,36.3,0
"2019-11-02 09:37:54+00",9.1,10.1,,38,25,298,59,1022.55,36.3,0
"2019-11-02 09:42:54+00",9.3,10.3,,38.2,-9,359,26,1022.54,36.3,0
"2019-11-02 09:47:54+00",8.6,9.6,,38.3,-36,386,-2,1022.64,36.3,0
"2019-11-02 09:52:54+00",8.8,9.8,,38.3,3,313,54,1022.65,36.3,0
"2019-11-02 09:57:54+00",9.3,10.3,,38.4,32,240,108,1022.54,36.3,0
"2019-11-02 10:02:54+00",9.1,10.1,,38.2,36,239,107,1022.56,36.4,0
"2019-11-02 10:07:54+00",8.2,9.2,,38.2,-14,258,63,1022.56,36.4,0
"2019-11-02 10:12:54+00",8.2,9.2,,38.3,-1,238,82,1022.51,36.4,0
"2019-11-02 10:17:54+00",8.6,9.6,,38.3,-31,342,28,1022.53,36.4,0
"2019-11-02 10:22:54+00",9.2,10.2,,38.3,10,262,93,1022.46,36.5,0
"2019-11-02 10:27:54+00",9.6,10.6,,38.3,10,289,92,1022.43,36.5,0
"2019-11-02 10:32:54+00",9.1,10.1,,38.4,25,261,97,1022.4,36.5,0
"2019-11-02 10:37:54+00",8.9,9.9,,38.5,-17,298,63,1022.38,36.5,0
"2019-11-02 10:42:54+00",9.5,10.5,,38.5,25,263,94,1022.31,36.6,0
"2019-11-02 10:47:54+00",8.2,9.2,,38.4,-13,263,71,1022.22,36.6,0
"2019-11-02 10:52:54+00",8.6,9.6,,38.3,51,193,124,1022.26,36.6,0
"2019-11-02 10:57:54+00",8.7,9.7,,38.3,-49,321,48,1022.09,36.5,0
"2019-11-02 11:02:54+00",9.0,10.0,,38.3,3,328,44,1022.2,36.5,0
"2019-11-02 11:07:54+00",9.1,12.1,,38.4,-27,362,31,1022.18,36.5,0
"2019-11-02 11:12:54+00",9.5,10.5,,38.3,-10,333,64,1022.18,36.5,0
"2019-11-02 11:17:54+00",9.6,11.6,,38.2,25,263,91,1022.21,36.4,0
"2019-11-02 11:22:54+00",7.7,8.7,,38,-30,258,57,1022.21,36.5,0
"2019-11-02 11:27:54+00",8.3,10.3,,38,6,241,85,1022.2,36.4,0
"2019-11-02 11:32:54+00",8.8,10.8,,38.1,-38,301,58,1022.21,36.6,0
"2019-11-02 11:37:54+00",7.8,8.8,,38.1,-77,264,62,1022.27,36.7,0
"2019-11-02 11:42:54+00",9.3,11.3,,38,-55,288,69,1022.31,36.8,0
"2019-11-02 11:47:54+00",7.9,10.9,,38,-84,228,78,1022.31,36.9,0
"2019-11-02 11:52:54+00",8.7,10.7,,37.9,-35,138,156,1022.32,37,0
"2019-11-02 11:57:54+00",8.3,9.3,,37.9,-81,251,75,1022.35,37.1,0.1
"2019-11-02 12:02:54+00",8.0,9.0,,37.9,-83,216,90,1022.24,37.3,34.9
"2019-11-02 12:07:54+00",8.5,9.5,,38.1,-119,340,18,1022.17,37.6,43.2
"2019-11-02 12:12:54+00",9.0,11.0,,38.4,-121,367,6,1022.22,38.1,53
"2019-11-02 12:17:54+00",8.3,9.3,,38.9,-109,351,19,1022.23,38.8,62.1
"2019-11-02 12:22:54+00",9.3,11.3,,39.3,-99,403,32,1022.15,39.6,72.3
"2019-11-02 12:27:54+00",9.8,12.8,,39.8,-55,439,18,1022.13,40.5,82.1
"2019-11-02 12:32:54+00",10.0,12.0,,40.1,-44,440,25,1022.09,41.2,90.8
"2019-11-02 12:37:54+00",11.4,12.4,,40.3,-39,498,14,1022.11,41.9,101.2
"2019-11-02 12:42:54+00",12.8,13.8,,40.6,-51,568,13,1021.97,42.5,110.8
"2019-11-02 12:47:54+00",11.3,13.3,,40.7,-17,526,3,1022.02,42.8,121.8
"2019-11-02 12:52:54+00",11.0,13.0,,40.9,-63,498,-3,1021.94,43.2,130.1
"2019-11-02 12:57:54+00",13.5,15.5,,41.1,-53,653,-32,1021.92,43.7,141.8
"2019-11-02 13:02:54+00",11.3,13.3,,41.3,-80,487,27,1021.85,43.9,150.4
"2019-11-02 13:07:54+00",9.4,12.4,,41.7,-57,415,41,1021.88,44.5,157.7
"2019-11-02 13:12:54+00",12.3,13.3,,41.9,1,538,6,1021.88,45,167.8
"2019-11-02 13:17:54+00",10.1,12.1,,42.5,13,441,20,1021.83,45.5,176.4
"2019-11-02 13:22:54+00",10.5,11.5,,42.8,-66,468,24,1021.88,45.9,186.1
"2019-11-02 13:27:54+00",9.4,11.4,,43.2,-14,423,31,1021.89,46.3,192.8
"2019-11-02 13:32:54+00",10.8,11.8,,43.7,-48,476,13,1021.82,46.8,201
"2019-11-02 13:37:54+00",10.0,12.0,,44.1,-56,436,13,1021.83,47.3,209.5
"2019-11-02 13:42:54+00",9.6,11.6,,44.6,-15,431,23,1021.79,48.1,216.6
"2019-11-02 13:47:54+00",10.4,11.4,,45,-53,454,15,1021.88,48.8,220.5
"2019-11-02 13:52:54+00",8.8,10.8,,45.6,18,380,17,1021.93,49.3,227.3
"2019-11-02 13:57:54+00",8.4,10.4,,46.1,-30,371,20,1021.9,49.6,237.1
"2019-11-02 14:02:54+00",9.8,10.8,,46.4,-9,428,-7,1021.82,50.2,169.4
"2019-11-02 14:07:54+00",6.5,7.5,,46.7,-16,288,45,1021.78,50.5,169
"2019-11-02 14:12:54+00",7.5,9.5,,47.4,54,314,26,1021.77,51,256.9
"2019-11-02 14:17:54+00",9.8,12.8,,47.5,77,418,13,1021.8,50.8,209.7
"2019-11-02 14:22:54+00",9.5,11.5,,47.8,21,412,8,1021.7,50.7,250.1
"2019-11-02 14:27:54+00",8.9,10.9,,48.1,87,369,2,1021.8,50.8,174.4
"2019-11-02 14:32:54+00",9.1,12.1,,48.6,108,378,11,1021.86,51,262.6
"2019-11-02 14:37:54+00",10.7,12.7,,48.3,81,451,-13,1021.84,50.9,85.5
"2019-11-02 14:42:54+00",8.6,11.6,,48.9,109,358,15,1021.86,51.1,324.3
"2019-11-02 14:47:54+00",8.9,10.9,,49.7,183,307,61,1021.77,52.1,301
"2019-11-02 14:52:54+00",9.9,11.9,,49.9,102,412,-14,1021.78,52.7,270.7
"2019-11-02 14:57:54+00",9.3,11.3,,49.9,266,282,9,1021.79,53,306.2
"2019-11-02 15:02:54+00",8.3,10.3,,50.7,147,308,26,1021.83,53.7,240.7
"2019-11-02 15:07:54+00",8.3,10.3,,50.3,223,264,30,1021.91,53.6,335
"2019-11-02 15:12:54+00",9.9,11.9,,50.6,316,290,9,1021.67,54,330
"2019-11-02 15:17:54+00",7.9,9.9,,50.4,219,261,-9,1021.75,53.7,365.9
"2019-11-02 15:22:54+00",9.4,12.4,,50.9,329,246,36,1021.76,54.2,355.1
"2019-11-02 15:27:54+00",11.3,14.3,,51,299,370,20,1021.66,54.5,343.5
"2019-11-02 15:32:54+00",8.3,12.3,,50.8,237,269,4,1021.52,54.4,333.6
"2019-11-02 15:37:54+00",9.1,12.1,,50.7,293,254,40,1021.57,54,335.8
"2019-11-02 15:42:54+00",11.6,14.6,,50.8,400,310,11,1021.47,54.3,335.9
"2019-11-02 15:47:54+00",9.7,10.7,,51,303,282,19,1021.32,54.6,338.2
"2019-11-02 15:52:54+00",10.1,12.1,,50.8,265,338,-14,1021.24,54.6,340.6
"2019-11-02 15:57:54+00",8.4,9.4,,51.4,349,152,42,1021.03,55,317.5
"2019-11-02 16:02:54+00",9.4,11.4,,51.4,355,212,36,1020.98,55.2,337.9
"2019-11-02 16:07:54+00",9.5,11.5,,51.2,330,254,13,1020.94,55,345.9
"2019-11-02 16:12:54+00",8.7,9.7,,51.1,293,241,11,1020.88,54.8,345.7
"2019-11-02 16:17:54+00",10.0,12.0,,51.3,382,223,33,1020.69,54.9,346.9
"2019-11-02 16:22:54+00",10.6,12.6,,51.3,377,281,17,1020.69,54.8,348.9
"2019-11-02 16:27:54+00",8.3,9.3,,51.3,322,182,6,1020.52,54.6,347.8
"2019-11-02 16:32:54+00",10.1,12.1,,51.8,354,248,19,1020.47,55.1,349.4
"2019-11-02 16:37:54+00",11.0,13.0,,51.7,318,350,20,1020.26,55.1,352.7
"2019-11-02 16:42:54+00",11.1,13.1,,51.8,305,356,20,1020.3,55.4,355.1
"2019-11-02 16:47:54+00",9.9,11.9,,51.7,335,271,13,1020.05,55.4,371.9
"2019-11-02 16:52:54+00",8.8,10.8,,51.7,285,250,17,1020.01,55.3,344
"2019-11-02 16:57:54+00",11.2,14.2,,51.9,396,269,4,1019.92,55.5,342.1
"2019-11-02 17:02:54+00",8.9,12.9,,52,333,216,10,1019.83,55.4,339.4
"2019-11-02 17:07:54+00",10.1,11.1,,52,291,302,-8,1019.76,55.4,347.7
"2019-11-02 17:12:54+00",8.7,11.7,,52.3,240,290,-24,1019.74,55.6,348.4
"2019-11-02 17:17:54+00",7.5,8.5,,52.3,274,189,-8,1019.66,55.5,178.8
"2019-11-02 17:22:54+00",8.4,9.4,,52.7,336,173,11,1019.59,55.9,337.9
"2019-11-02 17:27:54+00",7.0,11.0,,52.9,320,-2,29,1019.52,56.3,332.4
"2019-11-02 17:32:54+00",7.6,9.6,,53,336,67,62,1019.45,56.9,347.1
"2019-11-02 17:37:54+00",8.5,9.5,,53,317,215,37,1019.37,57.2,339.6
"2019-11-02 17:42:54+00",5.6,7.6,,53,244,91,-7,1019.29,57.3,331.4
"2019-11-02 17:47:54+00",8.0,9.0,,53.3,329,156,36,1019.08,57.7,319.7
"2019-11-02 17:52:54+00",6.2,8.2,,53.1,269,70,20,1018.96,57.5,318.9
"2019-11-02 17:57:54+00",7.7,10.7,,53.2,346,-34,-39,1018.93,57.5,311.1
"2019-11-02 18:02:54+00",4.6,6.6,,53.2,220,68,51,1018.89,57.3,301.2
"2019-11-02 18:07:54+00",7.9,9.9,,53.3,352,-50,0,1018.88,57.1,299.1
"2019-11-02 18:12:54+00",8.7,9.7,,53.5,390,-33,14,1018.8,57.4,301.1
"2019-11-02 18:17:54+00",5.8,8.8,,53.2,242,63,4,1018.77,56.7,226.2
"2019-11-02 18:22:54+00",6.1,7.1,,53.2,273,76,14,1018.85,56.5,293.7
"2019-11-02 18:27:54+00",9.0,10.0,,53.3,321,232,13,1018.79,56.8,287.8
"2019-11-02 18:32:54+00",10.3,13.3,,53.3,358,259,21,1018.72,56.7,222.4
"2019-11-02 18:37:54+00",8.6,10.6,,53,338,178,29,1018.66,55.9,48
"2019-11-02 18:42:54+00",8.6,10.6,,52.9,315,209,12,1018.58,55.2,60
"2019-11-02 18:47:54+00",9.0,10.0,,52.6,290,254,11,1018.57,54.3,68.6
"2019-11-02 18:52:54+00",8.5,9.5,,52.4,304,222,10,1018.52,53.9,54.6
"2019-11-02 18:57:54+00",7.8,9.8,,53.1,229,229,26,1018.32,54.5,265.7
"2019-11-02 19:02:54+00",7.2,10.2,,53.3,212,234,-25,1018.24,55.4,277.9
"2019-11-02 19:07:54+00",10.3,11.3,,53.3,362,268,20,1018.05,55.6,69
"2019-11-02 19:12:54+00",9.2,11.2,,52.9,215,331,-10,1017.99,55.1,254.6
"2019-11-02 19:17:54+00",7.7,9.7,,53.2,208,250,-1,1017.85,55.7,263.6
"2019-11-02 19:22:54+00",8.0,11.0,,53.5,194,274,25,1017.79,56.1,185
"2019-11-02 19:27:54+00",11.0,13.0,,53.1,328,326,-9,1017.67,55.5,95.5
"2019-11-02 19:32:54+00",7.6,9.6,,53.8,89,317,10,1017.69,56,250.5
"2019-11-02 19:37:54+00",7.6,10.6,,54.1,35,323,25,1017.55,56.9,119.4
"2019-11-02 19:42:54+00",10.7,12.7,,53.6,49,467,9,1017.56,56.4,51.3
"2019-11-02 19:47:54+00",6.7,8.7,,53.2,38,280,-17,1017.61,55.6,45.6
"2019-11-02 19:52:54+00",8.5,10.5,,53.1,10,369,14,1017.67,55.3,37.4
"2019-11-02 19:57:54+00",7.1,9.1,,53,-21,315,4,1017.67,55.1,45.5
"2019-11-02 20:02:54+00",6.7,8.7,,53.2,-12,298,25,1017.56,55,62.3
"2019-11-02 20:07:54+00",8.6,10.6,,53.3,-51,378,5,1017.58,55.1,62.3
"2019-11-02 20:12:54+00",6.2,8.2,,53.5,163,212,1,1017.47,55.1,71.3
"2019-11-02 20:17:54+00",5.2,6.2,,53.9,4,232,2,1017.38,55.4,129.1
"2019-11-02 20:22:54+00",2.7,5.7,,54,90,101,-9,1017.26,55.7,127.3
"2019-11-02 20:27:54+00",1.4,3.4,,54.4,-1,91,0,1017.12,55.6,82
"2019-11-02 20:32:54+00",5.0,7.0,,54.4,108,183,8,1017.04,55.6,39.1
"2019-11-02 20:37:54+00",7.7,9.7,,54.3,204,245,21,1017.1,55.5,102.4
"2019-11-02 20:42:54+00",8.3,10.3,,54.2,145,322,8,1017.14,55.4,19.3
"2019-11-02 20:47:54+00",7.1,9.1,,53.9,123,280,-6,1017.09,54.9,12.7
"2019-11-02 20:52:54+00",7.9,8.9,,53.5,164,296,0,1017.16,54.2,6.1
"2019-11-02 20:57:54+00",7.7,9.7,,53.3,104,309,0,1017.09,53.7,0.9
"2019-11-02 21:02:54+00",9.5,10.5,,53.2,215,338,18,1017.12,53.4,0.2
"2019-11-02 21:07:54+00",4.8,6.8,,53.2,89,194,13,1017.12,53.2,0
"2019-11-02 21:12:54+00",7.6,8.6,,53.1,122,296,-8,1017.05,52.9,0
"2019-11-02 21:17:54+00",8.4,10.4,,53.1,14,363,-11,1017.03,52.7,0
"2019-11-02 21:22:54+00",6.8,7.8,,53.1,31,298,6,1016.96,52.7,0
"2019-11-02 21:27:54+00",3.7,6.7,,53,64,150,15,1017.04,52.7,0
"2019-11-02 21:32:54+00",9.3,10.3,,53,146,362,0,1016.93,52.6,0
"2019-11-02 21:37:54+00",7.2,8.2,,53.1,175,257,0,1016.94,52.5,0
"2019-11-02 21:42:54+00",8.2,9.2,,53.1,203,282,-8,1016.91,52.4,0
"2019-11-02 21:47:54+00",6.2,7.2,,53,174,189,5,1016.83,52.2,0
"2019-11-02 21:52:54+00",4.2,5.2,,53,169,100,2,1016.92,52.1,0
"2019-11-02 21:57:54+00",2.3,4.3,,52.9,83,82,13,1016.75,51.9,0
"2019-11-02 22:02:54+00",4.5,5.5,,52.4,-135,161,24,1016.8,51.8,0
"2019-11-02 22:07:54+00",5.1,6.1,,52.1,-8,225,0,1016.83,51.7,0
"2019-11-02 22:12:54+00",4.9,5.9,,52,17,216,3,1016.86,51.5,0
"2019-11-02 22:17:54+00",3.9,4.9,,52,64,156,3,1016.91,51.3,0
"2019-11-02 22:22:54+00",4.4,5.4,,52.2,-32,195,12,1016.79,51.2,0
"2019-11-02 22:27:54+00",2.9,5.9,,52.4,-68,-146,-1,1016.86,51.2,0
"2019-11-02 22:32:54+00",7.2,7.2,,52.6,-324,17,20,1016.92,51.4,0
"2019-11-02 22:37:54+00",8.9,9.9,,52.5,-390,-17,18,1016.8,51.5,0
"2019-11-02 22:42:54+00",8.8,9.8,,52.4,-389,-28,18,1016.92,51.5,0
"2019-11-02 22:47:54+00",8.9,9.9,,52.3,-395,-9,17,1017.02,51.6,0
"2019-11-02 22:52:54+00",10.8,11.8,,52.3,-463,-76,18,1016.9,51.5,0
"2019-11-02 22:57:54+00",10.1,12.1,,52.2,-447,-36,20,1016.95,51.5,0
"2019-11-02 23:02:54+00",9.9,11.9,,52,-434,-29,37,1016.9,51.4,0
"2019-11-02 23:07:54+00",11.9,12.9,,51.7,-504,-91,21,1016.94,51.3,0
"2019-11-02 23:12:54+00",9.2,10.2,,51.3,-408,-155,24,1016.94,51,0
"2019-11-02 23:17:54+00",9.0,10.0,,51,-376,-180,18,1016.87,50.6,0
"2019-11-02 23:22:54+00",8.5,9.5,,50.7,-358,-110,15,1016.88,50.3,0
"2019-11-02 23:27:54+00",9.9,10.9,,50.7,-420,-106,14,1016.88,50,0
"2019-11-02 23:32:54+00",7.4,8.4,,50.5,-316,-61,24,1016.91,49.8,0
"2019-11-02 23:37:54+00",9.5,10.5,,50.4,-414,-34,20,1016.87,49.6,0
"2019-11-02 23:42:54+00",10.3,12.3,,50.3,-451,3,20,1016.87,49.5,0
"2019-11-02 23:47:54+00",10.8,12.8,,50.3,-482,-5,42,1016.77,49.4,0
"2019-11-02 23:52:54+00",9.9,10.9,,50.4,-446,1,31,1016.78,49.4,0
"2019-11-02 23:57:54+00",10.9,12.9,,50.3,-482,32,24,1016.82,49.3,0
